RH
59 62 67 71 72 73 72 74 83 93 101 105 105 103 101 101 101 101 101 103 104 104 103 101 101 101 100 99 98 97 94 90 87 85 82 79 77 77 78 80 80 78 78 77 74 71 69 65 61 58 58 58 58 59 59 59 60 61 61 59 56 54 52
67 71 74 76 76 75 75 80 89 98 103 105 104 102 102 102 102 102 103 103 104 103 101 100 101 101 101 101 100 100 98 96 95 93 90 88 87 86 86 87 87 85 81 79 77 74 70 67 63 60 60 61 61 62 64 66 67 67 65 61 57 54 50
75 78 80 80 79 79 82 88 96 100 100 101 101 102 103 103 103 103 102 102 101 101 100 101 101 100 101 101 100 100 99 99 99 99 98 98 97 96 96 96 96 93 87 83 80 75 72 70 67 64 64 64 64 65 68 71 72 70 67 63 57 52 48
81 83 84 84 86 89 92 96 99 100 98 99 100 101 102 102 101 101 101 100 100 101 100 100 101 100 101 101 100 100 100 100 100 100 101 102 101 101 102 102 101 96 90 85 81 76 72 70 69 68 67 68 68 70 71 73 73 70 65 60 54 49 45
85 87 89 91 95 99 100 101 101 100 99 99 100 101 101 100 100 100 101 100 100 101 101 100 101 101 101 100 100 100 100 100 100 100 101 101 100 102 103 102 99 95 89 83 80 76 73 71 71 71 71 72 74 76 76 75 72 68 63 56 51 47 45
87 91 95 98 101 103 102 102 102 101 101 100 100 101 101 101 100 100 100 101 101 102 101 99 99 99 98 98 98 100 102 101 100 101 101 101 100 101 102 100 97 93 88 82 79 77 74 72 72 74 76 77 79 79 78 75 71 65 59 54 50 48 47
89 94 100 102 104 103 101 101 101 100 101 101 100 100 101 100 100 101 102 102 101 99 97 95 95 94 94 96 99 102 103 101 101 101 100 100 100 100 101 100 96 92 88 83 80 77 74 73 75 76 78 80 82 81 78 74 68 61 57 55 52 49 48
94 99 102 104 104 102 101 101 101 100 100 100 100 100 100 100 101 101 102 101 98 96 95 93 93 93 95 98 101 101 101 100 100 100 100 100 101 100 101 100 97 93 89 85 81 79 78 79 79 80 81 84 86 84 80 76 67 59 56 54 52 50 49
98 100 102 104 103 101 101 101 100 100 100 100 100 101 100 100 100 100 99 97 95 94 94 95 95 96 98 100 100 100 100 100 100 100 100 100 100 101 101 100 98 94 91 88 85 84 85 85 84 85 88 89 87 85 82 77 68 60 55 54 52 51 50
98 100 102 103 102 101 100 101 100 100 100 100 101 101 101 100 99 98 96 96 95 96 97 98 99 99 100 101 101 100 100 100 101 100 100 100 100 101 101 99 97 95 94 93 89 89 90 89 88 91 92 89 87 86 83 76 68 61 58 56 54 51 48
98 102 103 101 101 101 100 100 100 100 100 100 101 101 101 100 99 98 98 98 98 99 100 100 101 101 101 101 101 101 101 101 101 100 100 101 101 101 100 99 98 96 96 94 92 92 93 92 92 94 92 88 87 86 81 74 70 66 63 60 54 50 46
102 104 102 100 101 101 100 100 101 100 100 100 101 101 100 100 100 100 100 100 100 101 102 103 103 102 101 101 101 101 101 101 101 101 101 101 102 101 99 99 98 96 95 94 93 93 94 96 96 93 90 89 88 85 80 75 73 70 65 60 54 50 45
102 101 100 101 101 101 100 100 100 100 100 100 101 101 99 99 100 101 101 101 102 103 104 106 105 103 102 102 101 101 102 101 101 101 101 101 100 98 96 98 98 97 97 98 98 96 95 97 96 92 91 93 91 86 81 77 75 71 65 60 55 50 42
101 100 101 101 100 100 100 100 101 101 101 100 101 101 99 99 101 102 102 102 103 105 106 107 105 103 102 102 102 102 101 101 101 101 101 101 99 96 96 97 98 98 100 101 100 97 95 96 96 93 94 95 91 85 81 78 74 70 66 62 57 49 38
101 100 100 100 100 101 101 102 103 102 101 100 100 100 101 99 98 100 102 102 103 105 106 106 105 104 103 103 103 102 101 101 101 101 101 100 98 97 97 95 97 101 102 101 99 97 96 96 97 96 94 92 88 83 80 79 75 70 67 63 56 45 31
100 100 101 101 101 101 100 101 102 100 100 101 100 101 102 96 90 93 98 101 104 106 106 106 106 106 105 103 102 101 100 101 101 101 101 99 99 100 97 95 97 101 103 103 102 99 95 92 91 90 87 85 84 84 84 82 76 72 69 63 52 38 25
102 103 101 98 96 95 96 98 101 100 101 102 101 103 103 96 88 89 95 101 104 105 106 106 106 106 105 103 101 101 101 101 102 101 100 98 98 98 95 94 99 103 104 104 103 100 95 92 88 85 83 83 84 85 86 82 77 73 67 55 42 31 20
103 99 94 93 94 97 99 101 102 102 104 104 105 106 104 99 95 94 97 100 102 102 103 102 102 105 105 102 101 101 101 102 103 101 98 98 99 98 95 96 101 106 106 104 103 102 97 92 90 88 88 89 88 88 86 79 72 65 54 42 33 24 18
95 92 92 97 100 100 100 101 102 103 104 104 103 104 103 101 100 97 97 99 98 96 95 96 100 104 105 102 102 102 101 102 102 100 99 99 99 98 98 101 104 106 106 103 104 106 102 97 97 97 94 93 94 94 86 71 56 44 36 32 28 21 17
91 90 92 94 95 97 99 102 103 103 102 102 101 101 101 101 100 98 99 100 97 93 91 93 99 104 105 105 105 103 101 101 100 100 100 100 98 97 100 104 104 105 107 104 102 104 106 104 104 104 102 98 93 83 68 53 41 33 28 27 23 19 19
81 80 82 86 92 98 101 102 101 100 100 100 100 100 101 101 100 100 101 100 98 95 95 97 100 103 105 105 105 103 103 102 101 102 101 99 97 98 102 105 103 102 105 104 102 104 106 105 106 109 105 91 69 51 42 40 40 37 31 26 22 19 21
71 77 86 95 101 102 102 101 101 101 101 101 101 101 101 102 101 99 98 97 96 97 100 103 104 103 103 103 103 102 102 102 101 103 101 98 98 100 103 103 99 95 95 97 97 98 98 100 104 99 80 57 39 32 36 40 40 37 32 26 23 22 23
82 91 99 105 104 102 102 102 101 101 100 100 101 101 101 101 100 99 97 96 96 99 102 105 104 101 101 103 102 101 101 101 101 102 101 100 100 102 101 98 93 89 88 88 86 85 84 82 76 59 40 30 30 34 37 39 37 34 31 29 28 28 27
94 99 104 105 104 104 103 102 102 104 103 102 102 102 102 101 100 100 99 98 98 100 101 103 103 102 102 103 103 103 103 103 103 102 102 101 102 103 103 100 97 94 90 82 75 68 59 49 37 27 24 28 33 35 36 36 34 33 34 34 33 31 30
98 100 101 102 101 102 103 102 104 106 105 104 105 104 102 101 101 101 101 100 101 100 99 99 100 102 104 106 107 107 107 106 105 103 102 102 103 102 101 101 102 102 95 80 61 45 32 23 21 22 26 30 33 35 35 34 33 35 37 37 35 33 32
96 96 96 97 97 99 102 104 106 106 105 104 105 104 104 103 103 103 103 101 101 100 98 95 92 92 93 96 100 104 106 107 106 105 103 102 102 103 104 105 104 97 83 61 40 25 18 18 21 25 27 30 33 34 34 35 37 38 38 38 36 35 34
96 96 97 97 98 100 102 104 105 105 104 103 103 104 106 106 106 105 100 94 91 92 92 90 87 84 82 85 89 95 98 99 101 104 105 103 102 101 99 92 80 64 47 32 23 20 20 20 21 23 25 29 31 32 34 39 41 39 40 40 38 36 36
98 100 99 98 99 100 101 102 104 104 102 99 98 98 99 100 101 100 96 92 91 90 86 83 83 83 83 83 82 82 81 79 78 79 80 78 74 67 59 50 39 30 24 22 22 24 24 23 22 22 23 26 27 29 33 39 41 41 42 42 39 38 40
98 98 96 95 95 96 96 97 99 99 96 93 92 91 92 95 97 98 98 98 97 91 83 78 77 77 76 73 67 61 56 52 47 44 41 37 34 31 28 26 24 22 23 24 26 26 25 24 23 22 22 23 24 26 31 36 38 40 42 43 41 42 44
93 91 89 88 89 90 90 91 92 93 93 92 91 89 89 90 92 94 95 95 91 83 75 70 65 60 55 49 43 37 32 27 25 22 21 20 21 22 24 25 26 27 27 27 27 26 25 24 23 23 23 24 24 25 28 32 35 38 40 41 42 44 46
90 88 85 84 83 82 82 83 84 86 90 93 94 92 89 87 85 83 81 78 72 64 56 50 43 37 32 28 24 22 20 20 20 20 21 22 24 25 26 27 27 29 29 29 28 27 25 24 24 24 25 25 24 25 28 31 34 36 38 41 45 47 48
83 81 79 77 76 73 71 72 74 78 84 88 90 89 84 77 71 64 57 51 45 40 35 30 26 22 20 19 19 19 20 21 23 24 25 26 27 27 28 29 30 30 31 30 30 29 28 26 25 25 26 27 26 27 29 32 34 37 39 43 48 50 51
67 66 69 73 75 73 72 73 75 76 75 73 69 63 57 52 46 41 35 30 26 22 19 18 18 20 23 27 31 34 38 40 42 44 44 44 43 42 39 37 36 36 38 38 38 37 35 32 28 27 27 28 28 28 30 33 35 38 42 46 50 54 55
79 76 74 74 72 69 64 61 59 56 51 47 44 39 35 31 26 22 20 20 21 26 31 38 45 52 58 63 67 70 74 79 82 85 86 85 83 80 75 69 64 59 57 54 52 51 49 44 38 33 30 30 31 31 32 34 37 40 44 50 55 59 62
81 78 70 61 53 47 44 42 41 39 35 31 27 22 20 20 22 27 35 45 55 65 73 79 85 88 89 89 88 87 87 89 92 97 101 104 105 104 102 100 96 91 86 80 73 67 63 60 54 47 39 35 34 34 34 36 39 42 47 54 61 66 68
56 56 52 45 39 36 35 33 29 25 22 21 23 29 36 45 54 62 71 79 87 92 93 93 94 94 93 92 90 88 87 85 85 87 91 96 101 105 108 110 108 104 102 100 95 88 81 74 69 63 55 48 42 39 39 39 41 45 51 58 66 71 74
Wind_Speed
73 73 73 74 73 73 73 72 73 73 74 75 75 76 76 76 76 76 76 76 76 76 76 76 76 76 76 77 78 80 81 81 81 80 80 79 78 77 77 77 77 75 74 74 74 74 74 74 75 75 75 75 75 75 75 75 75 75 75 76 76 77 78
73 74 74 74 74 74 73 73 73 74 75 75 76 76 77 77 77 77 76 76 76 76 75 75 75 76 76 77 78 79 80 80 80 80 79 79 78 78 78 78 78 77 75 74 74 74 74 74 75 75 75 75 75 75 75 74 75 75 76 77 77 78 78
75 75 75 75 75 74 74 74 74 75 75 76 76 77 77 77 78 77 77 76 76 75 75 75 75 76 76 77 78 78 78 78 78 78 78 79 79 79 78 79 79 78 76 75 75 75 75 75 75 75 75 75 74 74 74 74 75 76 77 77 78 79 79
76 76 76 75 75 74 74 74 74 75 75 76 77 77 78 78 78 77 76 75 75 74 75 75 75 75 76 77 77 76 76 76 77 77 78 78 79 79 79 79 79 78 77 76 75 75 75 75 75 74 74 74 74 74 74 75 75 76 77 78 79 79 80
76 76 75 75 74 74 74 74 74 75 76 76 77 77 77 77 76 75 74 73 73 73 73 74 74 74 74 75 74 74 74 75 76 77 78 78 78 79 79 79 79 78 77 76 76 76 76 75 74 73 74 74 74 74 75 75 76 77 78 79 79 80 81
76 76 75 75 74 74 74 74 75 75 76 76 76 75 74 73 73 72 72 72 72 72 72 72 72 72 73 73 73 73 74 75 76 76 77 77 78 78 79 79 78 78 77 77 76 76 75 74 73 72 73 74 75 75 75 76 77 78 79 80 80 80 81
76 75 75 74 74 74 74 75 75 75 75 74 73 72 71 70 70 70 70 70 70 70 71 71 71 72 72 72 73 73 74 75 75 76 76 77 77 78 78 78 77 77 76 76 76 75 74 74 73 72 72 74 75 76 76 78 79 78 79 80 80 80 81
75 75 74 74 74 74 74 74 73 72 71 70 69 68 68 68 68 68 68 69 69 70 70 71 71 71 71 72 72 72 73 74 75 76 76 76 77 77 77 77 76 76 75 75 74 74 73 73 72 72 73 74 76 77 78 80 80 79 79 80 80 80 81
74 74 74 73 73 73 72 71 70 69 68 67 66 66 66 67 67 68 68 69 70 70 71 71 70 70 70 70 71 72 73 74 75 75 75 75 75 75 75 75 75 75 74 74 73 72 72 73 72 72 73 75 77 79 80 81 81 80 79 80 80 79 80
73 73 73 72 71 70 69 67 66 65 65 65 65 65 66 67 68 68 69 70 70 70 70 69 69 69 69 70 71 72 73 73 74 74 73 73 73 74 74 74 73 73 73 72 72 71 72 72 72 73 75 76 78 80 81 82 82 81 80 80 80 78 79
72 71 70 69 68 67 65 64 63 63 64 64 65 66 67 68 68 69 69 69 69 69 68 68 68 69 70 71 72 72 72 72 72 72 72 72 72 73 73 72 72 71 71 72 71 71 72 72 73 74 77 78 79 81 82 82 82 81 80 80 80 78 78
70 69 67 66 64 64 63 62 62 63 64 65 66 67 68 68 69 69 69 68 68 68 68 69 69 70 71 71 71 71 71 71 71 71 71 71 71 71 71 71 71 71 71 71 71 71 72 73 75 76 78 79 80 81 82 82 82 81 81 80 79 78 77
66 65 63 62 61 61 61 62 62 64 65 66 68 69 69 68 68 68 67 67 68 68 69 69 70 70 70 70 70 70 70 69 69 70 70 70 70 70 69 69 70 70 70 71 72 73 73 75 77 78 79 80 82 82 82 82 81 81 81 80 79 77 76
62 61 60 60 60 61 61 62 63 64 66 67 68 69 69 67 66 67 67 67 68 69 69 69 69 69 69 68 68 68 68 68 69 69 69 69 69 68 68 68 69 70 71 72 74 75 76 77 79 79 80 81 82 82 82 82 81 81 81 80 78 75 73
59 59 59 60 61 61 62 62 64 65 67 68 68 69 69 66 65 67 68 68 68 69 68 68 68 67 66 65 65 66 67 67 68 69 69 69 68 68 67 68 68 71 73 75 77 78 78 79 80 81 81 82 83 82 82 82 82 81 81 79 76 73 71
59 59 60 61 61 62 62 63 65 66 67 67 67 68 69 68 66 67 68 68 68 67 67 66 65 64 64 64 64 65 66 67 68 68 68 68 67 67 68 68 70 73 76 77 79 80 80 81 81 82 83 83 83 82 82 82 82 81 79 78 75 71 68
60 60 61 62 62 63 64 64 65 66 66 67 67 68 70 69 68 68 68 67 66 65 64 63 62 62 63 63 64 65 66 67 68 68 67 67 68 68 69 71 73 76 78 79 80 81 82 82 83 84 84 84 83 83 82 82 81 79 78 77 74 69 64
62 62 62 63 63 64 64 64 65 66 67 68 68 69 70 70 69 68 67 65 64 63 62 61 61 61 62 62 63 64 65 66 67 68 68 68 69 71 72 74 76 78 79 79 80 81 83 84 84 84 84 84 84 83 83 83 81 78 77 75 70 65 61
63 63 64 64 64 64 65 65 66 67 68 68 68 68 68 68 67 66 65 63 62 61 61 60 60 61 62 62 62 63 64 66 68 69 70 71 72 74 74 75 76 78 78 79 80 81 83 84 84 84 84 83 83 83 84 84 82 78 75 70 65 62 59
64 64 64 65 65 65 66 66 66 66 66 66 66 66 66 65 64 64 63 62 61 61 60 60 61 61 62 63 63 64 65 68 70 72 73 75 76 76 76 76 77 77 78 79 80 81 81 82 82 83 84 84 84 83 81 80 78 76 72 66 61 58 56
65 65 66 66 66 66 65 65 64 64 64 63 63 63 63 63 62 62 62 61 61 61 61 61 62 62 63 65 66 67 69 71 74 76 77 78 78 77 76 77 78 78 80 80 80 79 79 80 81 83 85 84 82 79 75 73 71 70 67 62 57 54 52
66 66 66 65 64 63 62 62 61 61 61 61 61 61 62 62 62 62 62 62 62 62 62 62 63 64 65 67 69 71 73 74 76 78 79 80 79 78 78 79 80 80 80 80 79 79 79 80 81 81 81 79 76 73 69 67 65 64 62 58 54 51 49
65 64 62 61 60 59 58 58 58 58 59 59 60 61 61 62 62 63 63 63 63 63 64 64 65 67 69 70 72 73 74 75 77 78 79 79 79 79 80 81 81 81 80 80 80 80 81 80 79 77 74 71 69 67 65 63 60 58 56 54 51 49 47
59 57 56 56 55 55 56 56 57 58 58 59 60 61 62 63 64 64 65 65 65 66 67 67 69 70 72 73 74 75 76 77 77 78 78 78 79 79 80 80 80 80 81 82 82 81 80 78 75 70 66 64 63 62 60 58 56 54 52 50 48 47 47
54 54 54 54 54 55 56 56 57 58 59 61 62 63 64 65 66 67 68 69 69 70 71 71 72 73 74 74 75 75 76 77 77 77 77 77 78 79 79 79 79 81 82 83 82 79 77 73 68 64 61 59 58 57 55 53 52 51 50 48 46 46 46
53 53 53 54 55 55 56 57 59 60 61 63 64 65 67 68 69 70 71 72 72 73 73 74 74 74 74 74 75 75 75 75 75 76 76 77 78 79 80 80 80 81 81 80 78 74 70 66 63 59 56 54 53 51 49 48 48 49 48 46 45 45 44
53 53 54 55 56 57 59 60 62 63 65 66 67 68 69 71 71 72 73 73 73 73 73 73 73 74 74 74 74 75 75 75 76 77 78 78 79 79 80 79 78 77 76 74 70 67 64 62 59 56 53 50 47 45 45 45 46 47 46 46 45 44 43
54 56 57 58 59 60 62 63 65 66 67 68 69 70 70 71 72 72 73 73 73 73 73 73 73 74 74 75 76 76 77 77 77 77 77 77 77 77 76 75 73 71 68 65 63 61 59 58 56 54 50 47 44 42 41 43 44 45 45 45 45 43 42
58 59 60 61 62 63 64 65 66 68 69 69 69 70 70 70 70 71 72 72 73 73 74 74 74 75 76 77 77 77 77 76 76 75 74 73 72 71 70 68 66 64 62 60 58 57 56 55 53 51 49 46 43 41 40 42 43 43 44 44 44 42 41
60 62 63 63 64 65 66 66 67 68 69 69 69 70 69 70 70 71 72 73 75 76 76 75 75 76 75 76 76 75 74 72 71 70 68 66 65 64 63 62 61 60 58 57 56 55 54 52 51 49 47 45 43 41 41 41 41 42 42 43 42 41 41
63 64 65 65 66 66 67 67 67 68 68 68 69 70 70 71 72 73 74 75 76 76 75 75 74 74 73 72 71 70 68 66 64 63 62 61 60 60 59 58 58 57 56 55 54 53 52 51 49 48 46 45 44 43 42 41 41 41 41 41 41 41 40
65 66 66 67 67 67 67 68 67 67 68 68 69 70 71 72 73 74 74 75 75 74 73 71 70 68 66 65 64 63 61 61 60 59 58 58 58 57 57 57 56 56 55 54 52 51 51 50 49 48 47 46 45 44 43 42 42 41 41 41 41 41 40
65 65 65 66 66 67 67 67 67 68 69 70 70 71 71 71 71 71 71 71 71 70 68 65 63 60 59 59 58 58 58 57 57 57 57 57 56 56 55 55 55 55 55 53 52 51 50 50 50 49 47 46 45 44 44 43 42 42 42 42 41 41 41
64 64 64 65 66 67 67 68 68 69 69 69 70 70 69 68 66 65 64 63 63 62 61 60 59 58 58 58 58 58 58 58 57 57 57 57 57 56 56 56 56 55 55 54 53 52 51 50 50 50 49 47 46 45 44 43 43 43 43 42 42 42 41
62 64 66 67 67 67 67 67 67 67 67 66 66 65 64 62 59 58 57 58 59 60 60 61 61 61 61 62 62 62 62 61 60 60 59 59 58 58 58 57 57 57 56 55 54 53 52 52 51 50 50 49 47 46 44 43 43 43 43 42 42 42 41
63 65 67 67 67 66 65 64 63 62 61 60 59 59 58 57 57 57 58 59 60 62 63 63 64 64 64 65 65 65 65 65 64 64 63 63 62 60 60 59 58 58 57 57 56 55 54 53 52 52 51 50 48 47 45 44 44 43 43 43 42 42 41
Wind_Direction
285 285 285 285 285 285 284 284 283 282 281 281 281 282 282 282 282 282 282 282 282 281 281 281 282 282 282 282 283 283 283 283 283 282 282 281 281 281 280 280 280 280 279 278 277 277 277 277 278 278 278 277 277 276 276 275 275 275 275 275 275 275 275
286 286 285 285 285 285 284 284 283 282 281 281 281 282 282 282 282 282 282 281 281 281 281 281 281 281 282 282 282 282 282 282 282 282 282 281 281 281 281 281 280 280 279 278 278 278 278 278 278 278 278 277 276 276 276 276 276 276 276 276 276 276 276
286 286 285 285 285 284 284 283 282 282 281 281 282 282 282 282 282 282 281 281 281 280 280 280 281 281 281 281 281 281 281 281 281 281 281 281 281 281 281 281 280 280 279 279 278 278 278 278 278 278 277 277 276 276 276 276 276 277 277 277 278 278 278
286 286 285 285 285 285 284 283 282 282 282 282 282 282 282 281 281 281 281 280 280 280 280 280 281 281 281 281 281 281 281 281 281 281 280 280 280 280 280 280 279 279 279 279 279 278 278 278 278 278 277 277 277 276 276 276 277 277 278 278 279 279 279
286 286 286 285 285 284 284 283 282 282 282 282 282 281 281 281 281 280 280 280 280 280 280 281 281 281 281 281 281 281 281 280 280 280 280 280 279 279 279 279 279 279 279 279 278 278 278 278 278 277 277 277 277 277 277 277 278 278 279 280 280 281 281
286 286 286 285 284 284 283 283 282 282 282 282 282 281 281 281 281 280 280 280 280 280 280 280 280 280 281 281 281 281 280 279 279 279 279 279 279 278 278 278 278 279 278 278 278 278 278 278 277 277 277 277 277 277 278 278 279 280 281 282 282 282 282
286 286 285 285 284 284 283 283 283 283 282 282 282 281 281 281 280 280 280 280 280 280 280 280 280 280 281 281 281 280 280 279 279 279 278 278 278 278 278 278 278 278 278 278 278 278 278 277 277 277 277 278 278 279 279 280 280 281 282 283 284 284 284
286 285 285 284 284 284 284 283 283 283 282 282 281 281 280 280 279 279 279 279 280 280 280 281 281 281 281 281 280 280 279 279 279 279 279 278 278 278 278 278 278 277 277 278 278 278 278 277 277 278 278 278 279 280 281 281 282 283 284 284 285 285 285
285 285 285 285 285 284 284 283 283 282 282 281 280 280 280 279 280 280 280 281 281 281 281 281 281 281 281 280 280 279 279 279 279 279 279 278 278 278 278 277 277 277 278 278 278 277 277 277 278 278 279 279 281 282 282 283 284 285 285 285 285 286 286
285 285 285 285 284 283 283 283 282 282 281 281 280 280 280 280 281 281 281 281 281 281 281 281 281 281 280 280 279 279 279 279 279 279 278 278 278 277 277 277 277 278 278 277 277 277 277 278 278 279 280 281 282 283 284 284 285 286 286 286 286 286 286
285 285 284 284 283 283 282 282 282 281 281 281 281 281 281 281 281 281 281 281 280 280 281 281 281 280 280 280 280 279 279 279 278 278 278 277 277 277 277 277 277 277 277 277 277 277 278 278 279 280 281 282 283 284 284 285 286 287 287 287 287 287 287
285 284 283 283 282 282 282 282 282 282 282 282 281 281 281 281 281 280 280 280 280 281 281 281 281 281 280 280 280 280 279 278 278 277 277 276 276 276 277 277 277 277 277 277 277 278 279 280 280 281 282 283 284 284 285 286 287 288 288 287 288 288 288
284 284 283 283 283 283 283 283 283 283 283 282 282 281 281 281 280 280 281 281 282 282 282 282 281 281 281 281 280 280 279 278 278 277 276 276 276 277 277 277 277 277 277 278 278 279 280 281 281 282 283 284 284 285 286 287 287 288 288 288 289 289 288
284 284 284 283 283 284 284 284 284 284 283 283 282 281 280 280 281 282 282 283 283 283 282 282 282 281 281 281 280 279 279 278 277 277 276 276 277 277 277 277 278 278 278 279 279 280 281 282 283 283 284 284 285 286 287 287 288 288 288 289 289 289 288
285 284 284 284 284 284 285 285 285 284 283 282 281 281 281 281 282 283 283 283 283 283 282 282 282 282 281 280 279 279 278 277 276 276 276 277 277 277 277 278 278 279 279 280 280 281 282 282 283 284 285 285 286 287 287 288 288 288 289 289 288 288 287
286 285 285 285 285 285 286 286 285 283 282 282 282 282 282 283 283 283 283 283 283 283 282 282 282 281 280 279 279 278 277 276 276 276 277 277 277 278 278 278 279 279 280 281 281 282 283 283 284 284 285 286 286 287 288 288 288 288 288 288 287 286 286
286 285 285 285 285 285 285 284 283 282 282 282 283 283 283 284 284 283 283 283 283 282 282 281 281 280 279 279 278 277 276 276 276 276 277 277 278 278 279 279 280 280 281 282 282 283 284 285 285 285 286 286 287 287 287 287 287 288 287 286 286 285 283
286 286 285 286 285 285 284 283 283 283 283 283 284 284 284 284 284 283 283 282 282 281 281 280 279 279 278 278 277 277 277 277 277 277 277 278 278 279 280 280 281 281 282 283 284 285 285 285 286 287 287 287 287 287 287 287 287 286 285 284 284 282 278
286 286 286 285 285 284 284 284 284 284 284 284 284 284 284 284 284 284 283 282 281 281 280 279 279 279 278 277 277 277 277 277 277 278 278 278 278 279 280 281 281 281 283 283 284 285 286 287 287 287 287 287 288 288 288 288 287 285 283 281 280 277 273
286 286 285 285 285 285 285 284 284 284 284 284 284 284 283 283 283 283 283 282 282 281 280 280 279 278 277 277 276 276 276 277 277 278 278 278 279 280 280 280 281 282 282 283 284 285 286 287 287 287 287 288 288 288 288 287 285 283 281 278 276 272 270
286 286 286 286 286 285 285 285 285 285 284 284 283 283 283 283 283 283 283 282 282 282 281 280 279 279 278 277 277 277 277 277 277 278 279 279 280 281 281 280 280 281 281 282 283 284 285 286 286 287 288 289 289 288 286 284 282 281 280 277 273 268 267
288 287 287 287 287 286 286 285 285 284 284 283 283 283 283 283 283 283 282 282 282 281 281 280 280 279 279 278 278 278 278 278 279 279 280 281 281 281 281 281 281 281 281 282 283 283 284 285 286 287 288 288 287 285 283 281 279 279 277 276 272 268 266
289 289 288 287 287 286 285 285 284 284 284 284 284 283 283 283 283 283 282 282 282 281 280 280 279 279 278 278 278 279 279 280 280 281 282 282 282 282 282 282 282 283 283 283 283 284 285 286 286 286 286 285 284 282 280 279 278 276 274 273 271 269 268
290 289 288 287 286 286 285 285 285 285 285 284 284 284 284 283 283 283 282 282 281 280 280 279 279 279 279 279 279 280 280 280 281 281 282 282 282 282 282 283 284 284 284 284 285 285 286 286 286 285 284 282 281 279 278 278 276 274 271 270 269 268 269
290 289 289 288 288 287 287 287 286 286 285 285 284 284 284 283 283 282 282 282 281 281 280 280 279 279 279 280 280 280 280 281 281 282 282 282 282 282 283 283 284 284 285 285 285 286 286 286 285 284 282 281 279 278 277 276 273 270 269 268 267 267 268
291 290 290 289 289 289 288 288 287 286 286 285 285 285 284 284 283 283 282 282 282 282 281 281 281 280 280 280 281 281 281 281 282 282 282 282 282 282 283 283 283 283 284 284 285 285 285 284 283 282 281 279 278 277 275 272 269 268 267 266 266 265 267
292 292 291 291 290 290 289 289 288 287 287 286 286 286 285 285 284 284 283 283 283 282 282 282 282 282 282 282 282 282 282 282 281 281 281 281 281 281 282 282 282 282 283 283 283 284 283 282 282 281 280 278 276 273 270 267 265 265 266 266 265 265 267
293 293 292 292 292 291 290 290 289 288 288 288 287 287 286 285 285 284 284 284 284 283 283 283 283 283 284 283 283 283 282 282 282 281 281 281 281 281 281 281 281 281 281 281 281 281 280 280 281 280 280 277 273 269 264 262 261 262 263 264 265 266 268
295 294 294 293 292 292 291 290 290 289 289 288 288 287 286 286 285 285 285 285 285 284 284 285 285 284 284 284 283 283 282 282 282 281 280 280 280 280 279 280 280 280 279 279 278 278 278 278 278 279 278 276 273 268 262 259 258 259 259 260 262 264 266
296 295 294 293 292 292 291 290 290 290 289 289 288 288 287 287 286 286 286 286 285 285 286 285 285 285 284 284 283 283 282 282 281 280 280 279 279 278 278 278 278 278 278 277 277 276 276 276 276 277 276 274 272 267 263 259 258 257 257 258 260 261 261
296 295 295 294 293 292 292 291 291 290 290 290 289 289 289 288 288 287 286 286 286 286 286 286 285 285 284 283 283 283 282 281 280 280 279 279 278 278 278 277 277 277 276 275 275 275 275 275 275 275 274 272 270 267 263 261 259 258 258 258 258 259 259
297 296 296 296 295 294 294 293 293 292 291 290 290 289 289 289 288 288 287 287 286 286 285 285 284 284 283 283 282 282 281 280 280 279 279 278 278 278 277 277 276 276 275 274 274 274 274 274 274 273 272 270 268 266 264 262 260 259 258 258 258 258 258
299 298 298 298 297 297 296 295 294 293 292 291 290 290 289 289 289 289 288 287 287 287 286 285 284 283 282 281 280 280 279 279 279 279 278 278 277 277 276 276 275 275 274 275 274 273 273 273 272 272 270 269 267 265 263 262 260 259 258 258 258 258 259
301 301 300 299 299 298 297 297 296 295 294 293 292 291 291 290 290 289 288 288 288 287 287 286 285 284 283 281 280 280 279 278 278 277 277 277 277 276 275 275 274 274 273 273 273 272 272 271 271 271 270 269 267 265 263 261 259 258 257 257 257 257 258
302 301 301 300 300 299 299 298 297 296 296 295 294 293 293 292 292 290 289 289 289 288 287 287 286 285 284 283 282 281 280 279 278 277 276 275 274 274 273 273 273 272 272 271 270 270 269 269 269 269 269 268 267 265 263 261 259 257 256 256 256 256 256
303 302 302 302 301 301 300 300 299 298 297 296 295 295 294 294 293 292 291 290 289 289 288 288 287 286 285 284 283 282 281 281 280 278 277 276 274 273 271 271 270 270 270 269 269 268 268 267 267 266 266 266 266 265 263 261 259 257 256 255 255 255 255